This is the latest recevied weather packets stored in our database for station/object KW4UJ. If no packets are shown the sender has not sent any weather packets the latest 10 day(s).
| Time | Temp. | Humidity | Pressure | Rain* | Wind** | Luminosity | Snow |
|---|---|---|---|---|---|---|---|
| 1777410219 | 16.67° C | 67% | 1016.9 hPa | 0 mm | - | 83 W/m² | - |
| 1777409914 | 16.67° C | 68% | 1016.9 hPa | 0 mm | - | 80 W/m² | - |
| 1777409610 | 16.67° C | 67% | 1016.8 hPa | 0 mm | - | 100 W/m² | - |
| 1777409306 | 16.67° C | 68% | 1016.9 hPa | 0 mm | - | 86 W/m² | - |
| 1777409002 | 16.67° C | 68% | 1016.9 hPa | 0 mm | - | 82 W/m² | - |
| 1777408699 | 16.67° C | 67% | 1017.1 hPa | 0 mm | - | 81 W/m² | - |
| 1777408394 | 16.67° C | 67% | 1016.9 hPa | 0 mm | - | 67 W/m² | - |
| 1777408089 | 16.67° C | 69% | 1016.8 hPa | 0 mm | - | 88 W/m² | - |
| 1777407785 | 16.67° C | 68% | 1017.1 hPa | 0 mm | - | 66 W/m² | - |
| 1777407480 | 16.67° C | 68% | 1017 hPa | 0 mm | - | 73 W/m² | - |
| 1777407175 | 16.67° C | 67% | 1017.1 hPa | 0 mm | - | 102 W/m² | - |
| 1777406871 | 16.67° C | 68% | 1016.9 hPa | 0 mm | - | 131 W/m² | - |
| 1777406566 | 16.11° C | 68% | 1017.3 hPa | 0 mm | - | 132 W/m² | - |
| 1777406262 | 16.11° C | 67% | 1017.1 hPa | 0 mm | - | 135 W/m² | - |
| 1777405961 | 16.11° C | 67% | 1017.2 hPa | 0 mm | - | 158 W/m² | - |
| 1777405657 | 16.67° C | 67% | 1017.2 hPa | 0 mm | - | 148 W/m² | - |
| 1777405355 | 16.67° C | 67% | 1017.2 hPa | 0 mm | - | 194 W/m² | - |
| 1777405051 | 16.67° C | 67% | 1017.5 hPa | 0 mm | - | 198 W/m² | - |
| 1777404751 | 16.67° C | 67% | 1017.3 hPa | 0 mm | - | 265 W/m² | - |
| 1777404447 | 16.11° C | 68% | 1017.3 hPa | 0 mm | - | 235 W/m² | - |
| 1777404143 | 16.11° C | 65% | 1017.4 hPa | 0 mm | - | 275 W/m² | - |
| 1777403840 | 16.11° C | 66% | 1017.6 hPa | 0 mm | - | 284 W/m² | - |
| 1777403535 | 16.11° C | 66% | 1017.7 hPa | 0 mm | - | 255 W/m² | - |
| 1777403235 | 16.11° C | 66% | 1017.6 hPa | 0 mm | - | 384 W/m² | - |
| 1777402930 | 15.56° C | 67% | 1017.7 hPa | 0 mm | - | 325 W/m² | - |
* Rain latest hour (hover to see other rain measurements)
** Current wind speed in m/s (hover to see current wind gust speed)